Weather History for Monett, MO

Change the Weather History Date:

Monday, November 26, 2012

  Actual Average (KJLN) Record (KJLN)
Temperature  
Mean Temperature 38 °F 44 °F  
Max Temperature 46 °F 54 °F 78 °F (1990)
Min Temperature 30 °F 33 °F 11 °F (1975)
Degree Days  
Heating Degree Days 27 22  
Month to date heating degree days 415  
Since 1 July heating degree days 667  
Cooling Degree Days 0 0  
Month to date cooling degree days 5  
Year to date cooling degree days 1696  
Moisture  
Dew Point 31 °F    
Average Humidity 71    
Maximum Humidity 86    
Minimum Humidity 46    
Precipitation  
Precipitation 0.00 in 0.12 in 1.25 in (1982)
Month to date precipitation 3.31  
Year to date precipitation 43.26  
Sea Level Pressure  
Sea Level Pressure 30.10 in    
Wind  
Wind Speed 9 mph (NE)    
Max Wind Speed 20 mph    
Max Gust Speed 28 mph    
Visibility 10 miles    
Events Rain    
T = Trace of Precipitation, MM = Missing Value Source: NWS Daily Summary

Daily Weather History Graph

Daily Weather History Graph

Search for Another Location

Airport:

Trip Planner

Search our weather history database for the weather conditions in past years. The results will help you decide how hot, cold, wet, or windy it might be!

Date:

Astronomy

Nov. 26, 2012 Rise Set
Actual Time 7:06 AM CST 5:00 PM CST
Civil Twilight 6:37 AM CST 5:29 PM CST
Nautical Twilight 6:05 AM CST 6:00 PM CST
Astronomical Twilight 5:34 AM CST 6:32 PM CST
Moon 3:52 PM CST (11/26) 5:18 AM CST (11/26)
Length of Visible Light 10h 51m
Length of Day
9h 54m
Waxing Gibbous, 97% of the Moon is Illuminated
Nov 26
Waxing Gibbous
Nov 28
Full
Dec 6
Last Quarter
Dec 13
New
Dec 19
First Quarter

Hourly Weather History & Observations

Time (CST) Temp. Windchill Dew Point Humidity Pressure Visibility Wind Dir Wind Speed Gust Speed Precip Events Conditions
12:15 AM 42.8 °F 38.0 °F 32.0 °F 66% 29.94 in 10.0 mi ENE 8.1 mph - N/A   Clear
12:35 AM 41.0 °F 36.4 °F 32.0 °F 70% 29.94 in 10.0 mi ENE 6.9 mph - N/A   Clear
12:55 AM 41.0 °F 35.2 °F 32.0 °F 70% 29.94 in 10.0 mi ENE 9.2 mph - N/A   Clear
1:15 AM 42.8 °F 37.5 °F 32.0 °F 66% 29.93 in 10.0 mi East 9.2 mph - N/A   Clear
1:35 AM 42.8 °F 38.0 °F 32.0 °F 66% 29.93 in 10.0 mi East 8.1 mph - N/A   Clear
1:55 AM 41.0 °F 34.7 °F 32.0 °F 70% 29.93 in 10.0 mi ENE 10.4 mph - N/A   Clear
2:15 AM 39.2 °F 33.0 °F 32.0 °F 75% 29.94 in 10.0 mi ENE 9.2 mph - N/A   Clear
2:35 AM 39.2 °F 35.0 °F 32.0 °F 75% 29.94 in 10.0 mi NE 5.8 mph - N/A   Clear
2:55 AM 41.0 °F 35.2 °F 32.0 °F 70% 29.94 in 10.0 mi ENE 9.2 mph - N/A   Mostly Cloudy
3:15 AM 41.0 °F 35.2 °F 32.0 °F 70% 29.94 in 10.0 mi ENE 9.2 mph - N/A   Overcast
3:35 AM 42.8 °F 38.0 °F 32.0 °F 66% 29.94 in 10.0 mi East 8.1 mph - N/A   Mostly Cloudy
3:55 AM 42.8 °F 38.0 °F 33.8 °F 70% 29.93 in 10.0 mi East 8.1 mph - N/A   Mostly Cloudy
4:15 AM 44.6 °F 40.7 °F 35.6 °F 71% 29.93 in 10.0 mi East 6.9 mph - N/A   Overcast
4:35 AM 44.6 °F 40.2 °F 35.6 °F 71% 29.93 in 10.0 mi East 8.1 mph - N/A   Overcast
4:55 AM 46.4 °F 42.4 °F 35.6 °F 66% 29.93 in 10.0 mi East 8.1 mph - N/A   Overcast
5:15 AM 46.4 °F 43.5 °F 35.6 °F 66% 29.93 in 10.0 mi ENE 5.8 mph - N/A   Overcast
5:35 AM 42.8 °F 40.1 °F 35.6 °F 76% 29.94 in 10.0 mi NNE 4.6 mph - N/A   Mostly Cloudy
5:55 AM 42.8 °F 38.6 °F 35.6 °F 76% 29.95 in 10.0 mi NNE 6.9 mph - N/A   Overcast
6:15 AM 41.0 °F 35.8 °F 33.8 °F 76% 29.96 in 10.0 mi NE 8.1 mph - N/A   Overcast
6:35 AM 41.0 °F 36.4 °F 33.8 °F 76% 29.96 in 10.0 mi NE 6.9 mph - N/A   Overcast
6:55 AM 41.0 °F 36.4 °F 33.8 °F 76% 29.97 in 10.0 mi NE 6.9 mph - N/A   Overcast
7:15 AM 41.0 °F 36.4 °F 33.8 °F 76% 29.97 in 10.0 mi ENE 6.9 mph - N/A   Overcast
7:35 AM 41.0 °F 34.7 °F 33.8 °F 76% 29.99 in 10.0 mi NNE 10.4 mph - N/A   Overcast
7:55 AM 41.0 °F 35.2 °F 32.0 °F 70% 29.99 in 10.0 mi NE 9.2 mph - N/A   Overcast
8:15 AM 41.0 °F 35.8 °F 32.0 °F 70% 30.00 in 10.0 mi NE 8.1 mph - N/A   Overcast
8:35 AM 41.0 °F 35.8 °F 32.0 °F 70% 30.01 in 10.0 mi NE 8.1 mph - N/A   Overcast
8:55 AM 41.0 °F 34.3 °F 32.0 °F 70% 30.03 in 10.0 mi NNE 11.5 mph 16.1 mph N/A   Overcast
9:15 AM 39.2 °F 33.0 °F 32.0 °F 75% 30.03 in 10.0 mi NE 9.2 mph - N/A   Overcast
9:35 AM 39.2 °F 33.6 °F 32.0 °F 75% 30.03 in 10.0 mi NNE 8.1 mph - N/A   Overcast
9:55 AM 39.2 °F 32.5 °F 32.0 °F 75% 30.05 in 10.0 mi NNE 10.4 mph 17.3 mph N/A   Overcast
10:15 AM 39.2 °F 32.5 °F 32.0 °F 75% 30.05 in 10.0 mi NE 10.4 mph - N/A   Overcast
10:35 AM 41.0 °F 35.2 °F 32.0 °F 70% 30.06 in 10.0 mi NE 9.2 mph - N/A   Overcast
10:55 AM 39.2 °F 32.5 °F 32.0 °F 75% 30.06 in 10.0 mi NNE 10.4 mph - N/A   Overcast
11:15 AM 39.2 °F 33.0 °F 32.0 °F 75% 30.07 in 10.0 mi NE 9.2 mph - N/A   Overcast
11:35 AM 39.2 °F 31.6 °F 32.0 °F 75% 30.08 in 10.0 mi North 12.7 mph 17.3 mph N/A   Overcast
11:55 AM 39.2 °F 32.5 °F 32.0 °F 75% 30.07 in 10.0 mi NNE 10.4 mph - N/A   Overcast
12:15 PM 39.2 °F 33.6 °F 32.0 °F 75% 30.07 in 10.0 mi NNE 8.1 mph 16.1 mph N/A   Overcast
12:35 PM 39.2 °F 32.0 °F 32.0 °F 75% 30.08 in 10.0 mi NNE 11.5 mph - N/A   Overcast
12:55 PM 39.2 °F 30.8 °F 32.0 °F 75% 30.08 in 10.0 mi NNE 15.0 mph 18.4 mph N/A   Drizzle
1:15 PM 39.2 °F 32.0 °F 33.8 °F 81% 30.08 in 10.0 mi North 11.5 mph 17.3 mph N/A   Light Drizzle
1:35 PM 39.2 °F 31.6 °F 33.8 °F 81% 30.09 in 10.0 mi NNE 12.7 mph - N/A   Overcast
1:55 PM 41.0 °F 33.1 °F 32.0 °F 70% 30.09 in 10.0 mi North 15.0 mph - N/A   Overcast
2:15 PM 41.0 °F 32.5 °F 32.0 °F 70% 30.10 in 10.0 mi NNE 17.3 mph 24.2 mph N/A   Overcast
2:35 PM 41.0 °F 33.5 °F 32.0 °F 70% 30.11 in 10.0 mi North 13.8 mph 18.4 mph N/A   Overcast
2:55 PM 41.0 °F 33.5 °F 32.0 °F 70% 30.12 in 10.0 mi NNE 13.8 mph 21.9 mph N/A   Overcast
3:15 PM 41.0 °F 33.9 °F 32.0 °F 70% 30.13 in 10.0 mi NNE 12.7 mph 20.7 mph N/A   Light Drizzle
3:35 PM 41.0 °F 34.7 °F 32.0 °F 70% 30.14 in 10.0 mi NNE 10.4 mph - N/A Rain Light Rain
3:55 PM 42.8 °F 34.8 °F 30.2 °F 61% 30.15 in 10.0 mi NNE 17.3 mph 25.3 mph N/A   Overcast
4:15 PM 42.8 °F 34.3 °F 26.6 °F 53% 30.16 in 10.0 mi NNE 19.6 mph 24.2 mph N/A   Overcast
4:35 PM 42.8 °F 35.1 °F 23.0 °F 46% 30.18 in 10.0 mi NNE 16.1 mph 20.7 mph N/A   Overcast
4:55 PM 42.8 °F 35.1 °F 23.0 °F 46% 30.20 in 10.0 mi NNE 16.1 mph 21.9 mph N/A   Overcast
5:15 PM 41.0 °F 32.2 °F 26.6 °F 57% 30.22 in 10.0 mi NNE 18.4 mph 24.2 mph N/A   Overcast
5:35 PM 41.0 °F 31.9 °F 26.6 °F 57% 30.23 in 10.0 mi North 19.6 mph 27.6 mph N/A   Overcast
5:55 PM 39.2 °F 30.8 °F 26.6 °F 61% 30.25 in 10.0 mi NNE 15.0 mph 23.0 mph N/A   Overcast
6:15 PM 39.2 °F 32.0 °F 26.6 °F 61% 30.25 in 10.0 mi NNE 11.5 mph 24.2 mph N/A   Overcast
6:35 PM 39.2 °F 30.2 °F 26.6 °F 61% 30.26 in 10.0 mi NNE 17.3 mph 21.9 mph N/A   Overcast
6:55 PM 37.4 °F 31.4 °F 26.6 °F 65% 30.27 in 10.0 mi NNE 8.1 mph 19.6 mph N/A   Mostly Cloudy
7:15 PM 37.4 °F 32.1 °F 26.6 °F 65% 30.28 in 10.0 mi NNE 6.9 mph - N/A   Scattered Clouds
7:35 PM 35.6 °F 29.2 °F 26.6 °F 70% 30.29 in 10.0 mi North 8.1 mph - N/A   Clear
7:55 PM 35.6 °F 29.2 °F 26.6 °F 70% 30.30 in 10.0 mi NNE 8.1 mph - N/A   Clear
8:15 PM 33.8 °F 27.0 °F 26.6 °F 75% 30.31 in 10.0 mi NNE 8.1 mph - N/A   Clear
8:35 PM 33.8 °F 26.4 °F 26.6 °F 75% 30.32 in 10.0 mi NNE 9.2 mph - N/A   Clear
8:55 PM 33.8 °F 27.7 °F 26.6 °F 75% 30.32 in 10.0 mi North 6.9 mph - N/A   Clear
9:15 PM 33.8 °F 27.0 °F 26.6 °F 75% 30.33 in 10.0 mi NNE 8.1 mph - N/A   Clear
9:35 PM 32.0 °F 24.8 °F 26.6 °F 80% 30.34 in 10.0 mi North 8.1 mph - N/A   Clear
9:55 PM 32.0 °F 24.8 °F 26.6 °F 80% 30.34 in 10.0 mi North 8.1 mph - N/A   Clear
10:15 PM 32.0 °F 23.0 °F 26.6 °F 80% 30.35 in 10.0 mi North 11.5 mph 18.4 mph N/A   Clear
10:35 PM 32.0 °F 23.6 °F 26.6 °F 80% 30.35 in 10.0 mi North 10.4 mph - N/A   Clear
10:55 PM 32.0 °F 23.6 °F 26.6 °F 80% 30.36 in 10.0 mi North 10.4 mph - N/A   Clear
11:15 PM 32.0 °F 24.2 °F 26.6 °F 80% 30.36 in 10.0 mi North 9.2 mph - N/A   Clear
11:35 PM 30.2 °F 21.9 °F 26.6 °F 86% 30.35 in 10.0 mi North 9.2 mph - N/A   Clear
11:55 PM 30.2 °F 21.9 °F 26.6 °F 86% 30.35 in 10.0 mi North 9.2 mph - N/A   Clear